Year,Month,Day,Hour,Minute,Value (Times are PST for temperature in C)
2014,04,20,00,00,7.80
2014,04,20,00,02,7.80
2014,04,20,00,03,7.80
2014,04,20,00,04,7.80
2014,04,20,00,05,7.90
2014,04,20,00,06,7.90
2014,04,20,00,07,7.90
2014,04,20,00,08,7.90
2014,04,20,00,09,7.90
2014,04,20,00,10,7.90
2014,04,20,00,11,8.00
2014,04,20,00,12,7.90
2014,04,20,00,13,7.90
2014,04,20,00,14,7.90
2014,04,20,00,15,7.90
2014,04,20,00,17,7.90
2014,04,20,00,18,7.90
2014,04,20,00,19,7.90
2014,04,20,00,20,7.90
2014,04,20,00,22,7.90
2014,04,20,00,23,7.90
2014,04,20,00,24,7.90
2014,04,20,00,25,7.90
2014,04,20,00,27,8.00
2014,04,20,00,28,8.00
2014,04,20,00,29,8.00
2014,04,20,00,30,8.10
2014,04,20,00,31,8.10
2014,04,20,00,32,8.10
2014,04,20,00,33,8.10
2014,04,20,00,34,8.10
2014,04,20,00,35,8.10
2014,04,20,00,36,8.10
2014,04,20,00,37,8.10
2014,04,20,00,38,8.10
2014,04,20,00,39,8.10
2014,04,20,00,41,8.00
2014,04,20,00,42,8.00
2014,04,20,00,44,8.00
2014,04,20,00,45,8.00
2014,04,20,00,46,8.00
2014,04,20,00,47,8.00
2014,04,20,00,48,8.00
2014,04,20,00,49,7.90
2014,04,20,00,50,7.90
2014,04,20,00,51,7.90
2014,04,20,00,52,7.90
2014,04,20,00,53,7.90
2014,04,20,00,54,7.90
2014,04,20,00,55,7.80
2014,04,20,00,56,7.80
2014,04,20,00,57,7.80
2014,04,20,00,59,7.70
2014,04,20,01,00,7.70
2014,04,20,01,01,7.70
2014,04,20,01,03,7.60
2014,04,20,01,04,7.60
2014,04,20,01,05,7.60
2014,04,20,01,06,7.60
2014,04,20,01,07,7.50
2014,04,20,01,08,7.40
2014,04,20,01,09,7.40
2014,04,20,01,10,7.40
2014,04,20,01,11,7.40
2014,04,20,01,12,7.30
2014,04,20,01,14,7.20
2014,04,20,01,15,7.20
2014,04,20,01,16,7.20
2014,04,20,01,17,7.20
2014,04,20,01,18,7.10
2014,04,20,01,19,7.10
2014,04,20,01,20,7.10
2014,04,20,01,21,7.10
2014,04,20,01,22,7.10
2014,04,20,01,23,7.00
2014,04,20,01,24,7.00
2014,04,20,01,26,6.90
2014,04,20,01,27,6.90
2014,04,20,01,29,6.90
2014,04,20,01,30,6.80
2014,04,20,01,31,6.80
2014,04,20,01,32,6.80
2014,04,20,01,33,6.80
2014,04,20,01,34,6.80
2014,04,20,01,35,6.80
2014,04,20,01,36,6.70
2014,04,20,01,37,6.70
2014,04,20,01,38,6.70
2014,04,20,01,39,6.70
2014,04,20,01,40,6.60
2014,04,20,01,42,6.60
2014,04,20,01,43,6.50
2014,04,20,01,44,6.50
2014,04,20,01,45,6.40
2014,04,20,01,46,6.40
2014,04,20,01,47,6.40
2014,04,20,01,48,6.40
2014,04,20,01,49,6.40
2014,04,20,01,50,6.30
2014,04,20,01,52,6.30
2014,04,20,01,53,6.30
2014,04,20,01,54,6.30
2014,04,20,01,55,6.30
2014,04,20,01,56,6.30
2014,04,20,01,57,6.20
2014,04,20,01,58,6.20
2014,04,20,02,00,6.10
2014,04,20,02,01,6.10
2014,04,20,02,03,6.10
2014,04,20,02,04,6.10
2014,04,20,02,05,6.10
2014,04,20,02,06,6.10
2014,04,20,02,07,6.10
2014,04,20,02,08,6.00
2014,04,20,02,09,6.00
2014,04,20,02,10,6.00
2014,04,20,02,11,6.10
2014,04,20,02,12,6.10
2014,04,20,02,13,6.10
2014,04,20,02,14,6.10
2014,04,20,02,16,6.20
2014,04,20,02,17,6.20
2014,04,20,02,19,6.20
2014,04,20,02,20,6.30
2014,04,20,02,22,6.30
2014,04,20,02,23,6.30
2014,04,20,02,24,6.30
2014,04,20,02,25,6.30
2014,04,20,02,27,6.30
2014,04,20,02,28,6.30
2014,04,20,02,29,6.30
2014,04,20,02,30,6.20
2014,04,20,02,31,6.20
2014,04,20,02,32,6.20
2014,04,20,02,33,6.10
2014,04,20,02,34,6.10
2014,04,20,02,36,6.10
2014,04,20,02,37,6.00
2014,04,20,02,39,6.00
2014,04,20,02,40,6.00
2014,04,20,02,42,5.90
2014,04,20,02,43,5.90
2014,04,20,02,44,5.90
2014,04,20,02,46,5.90
2014,04,20,02,47,5.90
2014,04,20,02,48,5.90
2014,04,20,02,49,5.90
2014,04,20,02,50,5.90
2014,04,20,02,51,5.90
2014,04,20,02,52,5.90
2014,04,20,02,53,5.90
2014,04,20,02,54,5.90
2014,04,20,02,55,5.90
2014,04,20,02,56,5.90
2014,04,20,02,57,5.90
2014,04,20,02,59,5.90
2014,04,20,03,00,5.80
2014,04,20,03,01,5.80
2014,04,20,03,02,5.70
2014,04,20,03,04,5.70
2014,04,20,03,05,5.70
2014,04,20,03,06,5.60
2014,04,20,03,07,5.60
2014,04,20,03,08,5.60
2014,04,20,03,09,5.60
2014,04,20,03,10,5.50
2014,04,20,03,11,5.50
2014,04,20,03,13,5.40
2014,04,20,03,14,5.40
2014,04,20,03,16,5.40
2014,04,20,03,17,5.40
2014,04,20,03,18,5.30
2014,04,20,03,19,5.30
2014,04,20,03,20,5.30
2014,04,20,03,22,5.30
2014,04,20,03,23,5.30
2014,04,20,03,24,5.20
2014,04,20,03,25,5.20
2014,04,20,03,26,5.20
2014,04,20,03,27,5.20
2014,04,20,03,28,5.20
2014,04,20,03,29,5.20
2014,04,20,03,30,5.20
2014,04,20,03,31,5.20
2014,04,20,03,33,5.20
2014,04,20,03,34,5.10
2014,04,20,03,35,5.10
2014,04,20,03,36,5.10
2014,04,20,03,37,5.10
2014,04,20,03,38,5.10
2014,04,20,03,40,5.10
2014,04,20,03,41,5.10
2014,04,20,03,42,5.10
2014,04,20,03,44,5.10
2014,04,20,03,45,5.10
2014,04,20,03,47,5.10
2014,04,20,03,48,5.00
2014,04,20,03,49,5.00
2014,04,20,03,50,5.00
2014,04,20,03,51,5.00
2014,04,20,03,52,5.00
2014,04,20,03,53,5.00
2014,04,20,03,54,5.00
2014,04,20,03,55,5.00
2014,04,20,03,56,5.00
2014,04,20,03,58,4.90
2014,04,20,03,59,4.90
2014,04,20,04,00,4.90
2014,04,20,04,02,4.90
2014,04,20,04,04,4.80
2014,04,20,04,05,4.90
2014,04,20,04,06,4.80
2014,04,20,04,07,4.80
2014,04,20,04,08,4.80
2014,04,20,04,09,4.80
2014,04,20,04,11,4.80
2014,04,20,04,12,4.80
2014,04,20,04,13,4.80
2014,04,20,04,15,4.80
2014,04,20,04,16,4.80
2014,04,20,04,17,4.80
2014,04,20,04,18,4.80
2014,04,20,04,19,4.80
2014,04,20,04,20,4.80
2014,04,20,04,22,4.80
2014,04,20,04,23,4.80
2014,04,20,04,24,4.80
2014,04,20,04,25,4.80
2014,04,20,04,26,4.80
2014,04,20,04,27,4.80
2014,04,20,04,28,4.80
2014,04,20,04,30,4.80
2014,04,20,04,32,4.90
2014,04,20,04,33,4.90
2014,04,20,04,34,4.90
2014,04,20,04,36,4.90
2014,04,20,04,37,4.90
2014,04,20,04,39,4.90
2014,04,20,04,41,4.90
2014,04,20,04,42,4.90
2014,04,20,04,43,5.00
2014,04,20,04,45,5.00
2014,04,20,04,46,5.00
2014,04,20,04,48,5.00
2014,04,20,04,49,5.00
2014,04,20,04,50,5.00
2014,04,20,04,51,5.00
2014,04,20,04,52,5.00
2014,04,20,04,53,5.00
2014,04,20,04,54,5.00
2014,04,20,04,55,5.00
2014,04,20,04,57,5.00
2014,04,20,04,59,5.00
2014,04,20,05,00,5.00
2014,04,20,05,02,5.10
2014,04,20,05,03,5.10
2014,04,20,05,04,5.10
2014,04,20,05,05,5.00
2014,04,20,05,06,5.10
2014,04,20,05,07,5.10
2014,04,20,05,08,5.10
2014,04,20,05,09,5.10
2014,04,20,05,10,5.10
2014,04,20,05,11,5.10
2014,04,20,05,12,5.10
2014,04,20,05,13,5.10
2014,04,20,05,15,5.10
2014,04,20,05,16,5.10
2014,04,20,05,17,5.10
2014,04,20,05,19,5.10
2014,04,20,05,20,5.00
2014,04,20,05,21,5.00
2014,04,20,05,23,5.00
2014,04,20,05,24,5.00
2014,04,20,05,26,5.00
2014,04,20,05,27,4.90
2014,04,20,05,29,4.90
2014,04,20,05,30,4.90
2014,04,20,05,31,4.90
2014,04,20,05,33,4.90
2014,04,20,05,34,4.90
2014,04,20,05,36,4.90
2014,04,20,05,37,4.90
2014,04,20,05,39,4.90
2014,04,20,05,40,4.90
2014,04,20,05,41,4.90
2014,04,20,05,43,4.90
2014,04,20,05,45,4.90
2014,04,20,05,47,4.90
2014,04,20,05,48,4.90
2014,04,20,05,49,4.90
2014,04,20,05,50,4.90
2014,04,20,05,51,4.90
2014,04,20,05,53,4.90
2014,04,20,05,55,4.90
2014,04,20,05,56,4.90
2014,04,20,05,57,4.90
2014,04,20,05,58,4.90
2014,04,20,06,00,4.90
2014,04,20,06,01,4.90
2014,04,20,06,03,4.90
2014,04,20,06,04,4.90
2014,04,20,06,05,4.90
2014,04,20,06,06,5.00
2014,04,20,06,07,5.00
2014,04,20,06,08,5.00
2014,04,20,06,09,5.00
2014,04,20,06,10,5.00
2014,04,20,06,11,5.10
2014,04,20,06,13,5.10
2014,04,20,06,14,5.10
2014,04,20,06,15,5.10
2014,04,20,06,17,5.10
2014,04,20,06,19,5.10
2014,04,20,06,20,5.10
2014,04,20,06,21,5.10
2014,04,20,06,22,5.10
2014,04,20,06,23,5.10
2014,04,20,06,24,5.10
2014,04,20,06,25,5.10
2014,04,20,06,27,5.10
2014,04,20,06,28,5.10
2014,04,20,06,29,5.10
2014,04,20,06,30,5.10
2014,04,20,06,31,5.10
2014,04,20,06,32,5.10
2014,04,20,06,34,5.10
2014,04,20,06,35,5.10
2014,04,20,06,36,5.10
2014,04,20,06,38,5.10
2014,04,20,06,39,5.10
2014,04,20,06,40,5.10
2014,04,20,06,41,5.10
2014,04,20,06,42,5.10
2014,04,20,06,43,5.10
2014,04,20,06,45,5.10
2014,04,20,06,46,5.10
2014,04,20,06,47,5.10
2014,04,20,06,48,5.20
2014,04,20,06,49,5.20
2014,04,20,06,50,5.20
2014,04,20,06,51,5.20
2014,04,20,06,53,5.20
2014,04,20,06,54,5.20
2014,04,20,06,55,5.20
2014,04,20,06,56,5.20
2014,04,20,06,57,5.20
2014,04,20,06,58,5.20
2014,04,20,06,59,5.20
2014,04,20,07,00,5.20
2014,04,20,07,01,5.20
2014,04,20,07,03,5.20
2014,04,20,07,04,5.20
2014,04,20,07,05,5.20
2014,04,20,07,06,5.20
2014,04,20,07,07,5.20
2014,04,20,07,08,5.20
2014,04,20,07,10,5.20
2014,04,20,07,12,5.30
2014,04,20,07,14,5.30
2014,04,20,07,15,5.30
2014,04,20,07,16,5.30
2014,04,20,07,17,5.30
2014,04,20,07,18,5.30
2014,04,20,07,19,5.30
2014,04,20,07,21,5.30
2014,04,20,07,22,5.40
2014,04,20,07,23,5.40
2014,04,20,07,24,5.40
2014,04,20,07,25,5.40
2014,04,20,07,26,5.40
2014,04,20,07,27,5.40
2014,04,20,07,28,5.40
2014,04,20,07,29,5.40
2014,04,20,07,30,5.40
2014,04,20,07,32,5.40
2014,04,20,07,33,5.40
2014,04,20,07,35,5.50
2014,04,20,07,36,5.50
2014,04,20,07,37,5.50
2014,04,20,07,38,5.50
2014,04,20,07,40,5.50
2014,04,20,07,41,5.60
2014,04,20,07,42,5.60
2014,04,20,07,43,5.60
2014,04,20,07,44,5.60
2014,04,20,07,45,5.60
2014,04,20,07,46,5.60
2014,04,20,07,47,5.60
2014,04,20,07,48,5.60
2014,04,20,07,49,5.60
2014,04,20,07,51,5.60
2014,04,20,07,52,5.60
2014,04,20,07,53,5.60
2014,04,20,07,54,5.60
2014,04,20,07,56,5.60
2014,04,20,07,58,5.60
2014,04,20,07,59,5.60
2014,04,20,08,00,5.60
2014,04,20,08,02,5.70
2014,04,20,08,03,5.70
2014,04,20,08,04,5.70
2014,04,20,08,05,5.80
2014,04,20,08,06,5.80
2014,04,20,08,07,5.80
2014,04,20,08,08,5.80
2014,04,20,08,09,5.80
2014,04,20,08,10,5.80
2014,04,20,08,11,5.80
2014,04,20,08,12,5.80
2014,04,20,08,13,5.80
2014,04,20,08,14,5.80
2014,04,20,08,15,5.80
2014,04,20,08,16,5.80
2014,04,20,08,17,5.90
2014,04,20,08,18,5.90
2014,04,20,08,19,5.90
2014,04,20,08,20,5.90
2014,04,20,08,21,5.90
2014,04,20,08,22,5.90
2014,04,20,08,23,6.00
2014,04,20,08,25,6.10
2014,04,20,08,26,6.10
2014,04,20,08,27,6.10
2014,04,20,08,28,6.10
2014,04,20,08,29,6.10
2014,04,20,08,31,6.10
2014,04,20,08,32,6.20
2014,04,20,08,33,6.20
2014,04,20,08,35,6.20
2014,04,20,08,37,6.30
2014,04,20,08,38,6.30
2014,04,20,08,39,6.30
2014,04,20,08,41,6.30
2014,04,20,08,42,6.30
2014,04,20,08,43,6.30
2014,04,20,08,44,6.30
2014,04,20,08,46,6.30
2014,04,20,08,48,6.30
2014,04,20,08,50,6.30
2014,04,20,08,51,6.40
2014,04,20,08,53,6.40
2014,04,20,08,55,6.50
2014,04,20,08,56,6.50
2014,04,20,08,57,6.50
2014,04,20,08,58,6.50
2014,04,20,08,59,6.50
2014,04,20,09,00,6.50
2014,04,20,09,01,6.50
2014,04,20,09,02,6.50
2014,04,20,09,04,6.60
2014,04,20,09,05,6.60
2014,04,20,09,06,6.70
2014,04,20,09,07,6.70
2014,04,20,09,08,6.70
2014,04,20,09,10,6.80
2014,04,20,09,11,6.80
2014,04,20,09,12,6.80
2014,04,20,09,13,6.90
2014,04,20,09,14,6.90
2014,04,20,09,16,7.00
2014,04,20,09,17,7.00
2014,04,20,09,18,7.10
2014,04,20,09,19,7.10
2014,04,20,09,21,7.20
2014,04,20,09,22,7.30
2014,04,20,09,23,7.30
2014,04,20,09,24,7.40
2014,04,20,09,25,7.40
2014,04,20,09,26,7.50
2014,04,20,09,28,7.60
2014,04,20,09,29,7.70
2014,04,20,09,31,7.80
2014,04,20,09,32,7.80
2014,04,20,09,33,7.90
2014,04,20,09,34,7.90
2014,04,20,09,35,8.00
2014,04,20,09,36,8.00
2014,04,20,09,38,8.20
2014,04,20,09,39,8.20
2014,04,20,09,41,8.30
2014,04,20,09,42,8.30
2014,04,20,09,44,8.40
2014,04,20,09,45,8.40
2014,04,20,09,46,8.40
2014,04,20,09,47,8.40
2014,04,20,09,48,8.40
2014,04,20,09,50,8.40
2014,04,20,09,51,8.30
2014,04,20,09,53,8.30
2014,04,20,09,54,8.30
2014,04,20,09,55,8.40
2014,04,20,09,56,8.40
2014,04,20,09,57,8.50
2014,04,20,09,59,8.70
2014,04,20,10,00,8.80
2014,04,20,10,01,8.80
2014,04,20,10,03,8.90
2014,04,20,10,04,8.90
2014,04,20,10,05,9.00
2014,04,20,10,06,9.00
2014,04,20,10,07,9.10
2014,04,20,10,08,9.10
2014,04,20,10,09,9.10
2014,04,20,10,11,9.10
2014,04,20,10,13,9.00
2014,04,20,10,14,9.00
2014,04,20,10,15,8.90
2014,04,20,10,17,8.90
2014,04,20,10,18,8.90
2014,04,20,10,20,8.90
2014,04,20,10,21,8.90
2014,04,20,10,22,8.90
2014,04,20,10,23,8.90
2014,04,20,10,25,8.90
2014,04,20,10,26,8.90
2014,04,20,10,27,9.00
2014,04,20,10,28,8.90
2014,04,20,10,29,8.90
2014,04,20,10,31,9.00
2014,04,20,10,32,9.00
2014,04,20,10,33,9.10
2014,04,20,10,34,9.10
2014,04,20,10,35,9.20
2014,04,20,10,37,9.30
2014,04,20,10,38,9.40
2014,04,20,10,39,9.40
2014,04,20,10,41,9.70
2014,04,20,10,42,9.80
2014,04,20,10,43,9.80
2014,04,20,10,44,9.90
2014,04,20,10,45,9.90
2014,04,20,10,46,9.90
2014,04,20,10,47,9.90
2014,04,20,10,48,10.00
2014,04,20,10,49,10.10
2014,04,20,10,51,10.20
2014,04,20,10,52,10.20
2014,04,20,10,53,10.30
2014,04,20,10,54,10.30
2014,04,20,10,55,10.30
2014,04,20,10,56,10.30
2014,04,20,10,57,10.30
2014,04,20,10,58,10.30
2014,04,20,11,00,10.30
2014,04,20,11,01,10.40
2014,04,20,11,03,10.40
2014,04,20,11,04,10.50
2014,04,20,11,05,10.50
2014,04,20,11,06,10.60
2014,04,20,11,07,10.60
2014,04,20,11,08,10.60
2014,04,20,11,09,10.60
2014,04,20,11,10,10.70
2014,04,20,11,11,10.70
2014,04,20,11,12,10.70
2014,04,20,11,14,10.70
2014,04,20,11,16,10.70
2014,04,20,11,17,10.80
2014,04,20,11,18,10.80
2014,04,20,11,19,10.80
2014,04,20,11,20,10.90
2014,04,20,11,21,10.90
2014,04,20,11,22,10.90
2014,04,20,11,23,11.00
2014,04,20,11,24,11.00
2014,04,20,11,25,11.10
2014,04,20,11,26,11.10
2014,04,20,11,28,11.10
2014,04,20,11,29,11.20
2014,04,20,11,31,11.20
2014,04,20,11,32,11.30
2014,04,20,11,33,11.30
2014,04,20,11,34,11.40
2014,04,20,11,35,11.40
2014,04,20,11,36,11.40
2014,04,20,11,38,11.30
2014,04,20,11,39,11.40
2014,04,20,11,40,11.40
2014,04,20,11,41,11.40
2014,04,20,11,42,11.30
2014,04,20,11,43,11.30
2014,04,20,11,44,11.30
2014,04,20,11,45,11.30
2014,04,20,11,46,11.30
2014,04,20,11,47,11.40
2014,04,20,11,49,11.50
2014,04,20,11,50,11.50
2014,04,20,11,51,11.40
2014,04,20,11,52,11.40
2014,04,20,11,53,11.40
2014,04,20,11,55,11.30
2014,04,20,11,56,11.30
2014,04,20,11,57,11.20
2014,04,20,11,58,11.20
2014,04,20,11,59,11.10
2014,04,20,12,01,11.10
2014,04,20,12,02,11.00
2014,04,20,12,03,10.90
2014,04,20,12,04,10.90
2014,04,20,12,05,10.90
2014,04,20,12,06,10.90
2014,04,20,12,07,10.90
2014,04,20,12,08,10.90
2014,04,20,12,09,11.00
2014,04,20,12,10,11.00
2014,04,20,12,12,11.10
2014,04,20,12,13,11.10
2014,04,20,12,14,11.20
2014,04,20,12,15,11.20
2014,04,20,12,16,11.20
2014,04,20,12,17,11.30
2014,04,20,12,19,11.30
2014,04,20,12,20,11.30
2014,04,20,12,21,11.40
2014,04,20,12,23,11.40
2014,04,20,12,24,11.40
2014,04,20,12,25,11.40
2014,04,20,12,26,11.40
2014,04,20,12,27,11.40
2014,04,20,12,28,11.40
2014,04,20,12,29,11.40
2014,04,20,12,30,11.40
2014,04,20,12,31,11.40
2014,04,20,12,32,11.40
2014,04,20,12,33,11.40
2014,04,20,12,34,11.40
2014,04,20,12,35,11.40
2014,04,20,12,37,11.40
2014,04,20,12,38,11.40
2014,04,20,12,39,11.40
2014,04,20,12,40,11.40
2014,04,20,12,42,11.40
2014,04,20,12,43,11.40
2014,04,20,12,45,11.30
2014,04,20,12,46,11.20
2014,04,20,12,47,11.10
2014,04,20,12,48,11.10
2014,04,20,12,50,10.90
2014,04,20,12,51,10.90
2014,04,20,12,52,10.90
2014,04,20,12,53,10.90
2014,04,20,12,54,10.90
2014,04,20,12,55,10.90
2014,04,20,12,57,11.00
2014,04,20,12,58,11.00
2014,04,20,13,00,11.10
2014,04,20,13,01,11.10
2014,04,20,13,02,11.10
2014,04,20,13,04,10.90
2014,04,20,13,05,10.90
2014,04,20,13,06,10.90
2014,04,20,13,07,10.90
2014,04,20,13,08,10.90
2014,04,20,13,09,10.80
2014,04,20,13,10,10.80
2014,04,20,13,11,10.80
2014,04,20,13,12,10.80
2014,04,20,13,14,10.80
2014,04,20,13,15,10.70
2014,04,20,13,16,10.70
2014,04,20,13,17,10.60
2014,04,20,13,18,10.60
2014,04,20,13,19,10.60
2014,04,20,13,20,10.60
2014,04,20,13,21,10.60
2014,04,20,13,22,10.60
2014,04,20,13,24,10.40
2014,04,20,13,26,10.30
2014,04,20,13,27,10.30
2014,04,20,13,29,10.20
2014,04,20,13,31,10.20
2014,04,20,13,33,10.20
2014,04,20,13,35,10.30
2014,04,20,13,36,10.30
2014,04,20,13,37,10.30
2014,04,20,13,38,10.30
2014,04,20,13,39,10.30
2014,04,20,13,40,10.30
2014,04,20,13,41,10.30
2014,04,20,13,42,10.30
2014,04,20,13,43,10.30
2014,04,20,13,45,10.30
2014,04,20,13,47,10.40
2014,04,20,13,49,10.40
2014,04,20,13,50,10.50
2014,04,20,13,51,10.50
2014,04,20,13,52,10.60
2014,04,20,13,53,10.60
2014,04,20,13,54,10.60
2014,04,20,13,55,10.70
2014,04,20,13,56,10.70
2014,04,20,13,57,10.70
2014,04,20,13,58,10.70
2014,04,20,14,00,10.70
2014,04,20,14,01,10.80
2014,04,20,14,02,10.80
2014,04,20,14,04,10.80
2014,04,20,14,05,10.80
2014,04,20,14,06,10.80
2014,04,20,14,07,10.90
2014,04,20,14,08,10.90
2014,04,20,14,09,10.90
2014,04,20,14,10,11.00
2014,04,20,14,11,11.10
2014,04,20,14,12,11.10
2014,04,20,14,13,11.20
2014,04,20,14,14,11.20
2014,04,20,14,16,11.30
2014,04,20,14,18,11.20
2014,04,20,14,19,11.10
2014,04,20,14,20,11.10
2014,04,20,14,21,11.00
2014,04,20,14,22,11.00
2014,04,20,14,24,10.90
2014,04,20,14,25,10.90
2014,04,20,14,26,10.90
2014,04,20,14,27,10.90
2014,04,20,14,28,10.90
2014,04,20,14,30,10.90
2014,04,20,14,31,10.90
2014,04,20,14,32,10.90
2014,04,20,14,33,10.90
2014,04,20,14,35,10.90
2014,04,20,14,36,10.90
2014,04,20,14,37,10.90
2014,04,20,14,38,10.90
2014,04,20,14,40,10.90
2014,04,20,14,41,10.90
2014,04,20,14,42,10.90
2014,04,20,14,43,10.90
2014,04,20,14,44,10.90
2014,04,20,14,45,10.90
2014,04,20,14,46,10.90
2014,04,20,14,48,10.80
2014,04,20,14,50,10.80
2014,04,20,14,52,10.70
2014,04,20,14,53,10.70
2014,04,20,14,54,10.60
2014,04,20,14,55,10.60
2014,04,20,14,57,10.40
2014,04,20,14,59,10.30
2014,04,20,15,01,10.30
2014,04,20,15,02,10.20
2014,04,20,15,04,10.20
2014,04,20,15,05,10.20
2014,04,20,15,06,10.20
2014,04,20,15,07,10.20
2014,04,20,15,08,10.20
2014,04,20,15,09,10.20
2014,04,20,15,10,10.20
2014,04,20,15,11,10.20
2014,04,20,15,12,10.10
2014,04,20,15,13,10.10
2014,04,20,15,14,10.10
2014,04,20,15,15,10.10
2014,04,20,15,16,10.10
2014,04,20,15,17,10.10
2014,04,20,15,19,10.20
2014,04,20,15,20,10.20
2014,04,20,15,21,10.20
2014,04,20,15,23,10.20
2014,04,20,15,25,10.30
2014,04,20,15,26,10.30
2014,04,20,15,27,10.30
2014,04,20,15,28,10.30
2014,04,20,15,29,10.30
2014,04,20,15,30,10.30
2014,04,20,15,31,10.30
2014,04,20,15,32,10.30
2014,04,20,15,33,10.20
2014,04,20,15,34,10.20
2014,04,20,15,35,10.20
2014,04,20,15,36,10.20
2014,04,20,15,37,10.20
2014,04,20,15,38,10.20
2014,04,20,15,39,10.20
2014,04,20,15,40,10.20
2014,04,20,15,41,10.20
2014,04,20,15,42,10.20
2014,04,20,15,43,10.20
2014,04,20,15,44,10.20
2014,04,20,15,45,10.20
2014,04,20,15,47,10.20
2014,04,20,15,49,10.20
2014,04,20,15,50,10.20
2014,04,20,15,51,10.10
2014,04,20,15,52,10.10
2014,04,20,15,53,10.10
2014,04,20,15,54,10.10
2014,04,20,15,55,10.10
2014,04,20,15,56,10.10
2014,04,20,15,57,10.10
2014,04,20,15,58,10.10
2014,04,20,16,00,10.00
2014,04,20,16,01,10.00
2014,04,20,16,03,9.90
2014,04,20,16,04,9.90
2014,04,20,16,05,9.90
2014,04,20,16,06,9.90
2014,04,20,16,07,9.90
2014,04,20,16,08,9.90
2014,04,20,16,09,9.90
2014,04,20,16,11,9.80
2014,04,20,16,12,9.80
2014,04,20,16,13,9.80
2014,04,20,16,14,9.80
2014,04,20,16,15,9.70
2014,04,20,16,16,9.70
2014,04,20,16,17,9.70
2014,04,20,16,18,9.70
2014,04,20,16,19,9.70
2014,04,20,16,20,9.70
2014,04,20,16,21,9.70
2014,04,20,16,22,9.70
2014,04,20,16,24,9.70
2014,04,20,16,25,9.70
2014,04,20,16,26,9.70
2014,04,20,16,27,9.70
2014,04,20,16,28,9.70
2014,04,20,16,29,9.70
2014,04,20,16,31,9.70
2014,04,20,16,32,9.70
2014,04,20,16,33,9.70
2014,04,20,16,34,9.70
2014,04,20,16,35,9.60
2014,04,20,16,36,9.60
2014,04,20,16,37,9.60
2014,04,20,16,38,9.60
2014,04,20,16,39,9.60
2014,04,20,16,41,9.50
2014,04,20,16,42,9.50
2014,04,20,16,44,9.50
2014,04,20,16,45,9.60
2014,04,20,16,47,9.60
2014,04,20,16,48,9.60
2014,04,20,16,49,9.60
2014,04,20,16,50,9.60
2014,04,20,16,52,9.50
2014,04,20,16,53,9.50
2014,04,20,16,54,9.50
2014,04,20,16,55,9.50
2014,04,20,16,56,9.40
2014,04,20,16,57,9.40
2014,04,20,16,59,9.50
2014,04,20,17,00,9.50
2014,04,20,17,01,9.50
2014,04,20,17,02,9.50
2014,04,20,17,04,9.50
2014,04,20,17,05,9.50
2014,04,20,17,06,9.50
2014,04,20,17,07,9.50
2014,04,20,17,08,9.50
2014,04,20,17,10,9.50
2014,04,20,17,11,9.50
2014,04,20,17,13,9.50
2014,04,20,17,14,9.40
2014,04,20,17,15,9.40
2014,04,20,17,16,9.40
2014,04,20,17,17,9.40
2014,04,20,17,18,9.40
2014,04,20,17,19,9.40
2014,04,20,17,20,9.40
2014,04,20,17,22,9.40
2014,04,20,17,23,9.40
2014,04,20,17,24,9.40
2014,04,20,17,25,9.40
2014,04,20,17,26,9.40
2014,04,20,17,28,9.30
2014,04,20,17,30,9.30
2014,04,20,17,31,9.30
2014,04,20,17,32,9.20
2014,04,20,17,33,9.20
2014,04,20,17,34,9.20
2014,04,20,17,35,9.10
2014,04,20,17,36,9.10
2014,04,20,17,38,9.00
2014,04,20,17,40,8.90
2014,04,20,17,41,8.90
2014,04,20,17,42,8.90
2014,04,20,17,43,8.80
2014,04,20,17,44,8.80
2014,04,20,17,45,8.80
2014,04,20,17,47,8.80
2014,04,20,17,48,8.80
2014,04,20,17,50,8.70
2014,04,20,17,51,8.70
2014,04,20,17,53,8.70
2014,04,20,17,54,8.70
2014,04,20,17,56,8.70
2014,04,20,17,57,8.70
2014,04,20,17,58,8.70
2014,04,20,17,59,8.70
2014,04,20,18,00,8.70
2014,04,20,18,01,8.70
2014,04,20,18,02,8.70
2014,04,20,18,04,8.70
2014,04,20,18,05,8.70
2014,04,20,18,06,8.70
2014,04,20,18,07,8.70
2014,04,20,18,08,8.60
2014,04,20,18,09,8.60
2014,04,20,18,11,8.60
2014,04,20,18,12,8.60
2014,04,20,18,13,8.60
2014,04,20,18,14,8.60
2014,04,20,18,16,8.60
2014,04,20,18,17,8.60
2014,04,20,18,19,8.60
2014,04,20,18,20,8.60
2014,04,20,18,21,8.60
2014,04,20,18,22,8.60
2014,04,20,18,23,8.60
2014,04,20,18,24,8.60
2014,04,20,18,25,8.60
2014,04,20,18,26,8.60
2014,04,20,18,27,8.60
2014,04,20,18,28,8.60
2014,04,20,18,29,8.60
2014,04,20,18,30,8.60
2014,04,20,18,31,8.60
2014,04,20,18,32,8.60
2014,04,20,18,33,8.60
2014,04,20,18,35,8.60
2014,04,20,18,36,8.60
2014,04,20,18,37,8.60
2014,04,20,18,38,8.60
2014,04,20,18,39,8.60
2014,04,20,18,40,8.60
2014,04,20,18,41,8.60
2014,04,20,18,42,8.60
2014,04,20,18,44,8.60
2014,04,20,18,45,8.60
2014,04,20,18,46,8.60
2014,04,20,18,47,8.60
2014,04,20,18,48,8.60
2014,04,20,18,49,8.60
2014,04,20,18,50,8.60
2014,04,20,18,52,8.60
2014,04,20,18,53,8.60
2014,04,20,18,54,8.60
2014,04,20,18,56,8.60
2014,04,20,18,57,8.60
2014,04,20,18,58,8.60
2014,04,20,19,00,8.60
2014,04,20,19,01,8.60
2014,04,20,19,03,8.60
2014,04,20,19,04,8.60
2014,04,20,19,05,8.60
2014,04,20,19,06,8.60
2014,04,20,19,07,8.60
2014,04,20,19,08,8.60
2014,04,20,19,09,8.60
2014,04,20,19,10,8.60
2014,04,20,19,11,8.50
2014,04,20,19,12,8.50
2014,04,20,19,13,8.50
2014,04,20,19,14,8.50
2014,04,20,19,16,8.50
2014,04,20,19,17,8.50
2014,04,20,19,19,8.50
2014,04,20,19,20,8.50
2014,04,20,19,21,8.50
2014,04,20,19,22,8.50
2014,04,20,19,24,8.50
2014,04,20,19,25,8.50
2014,04,20,19,26,8.50
2014,04,20,19,27,8.50
2014,04,20,19,29,8.50
2014,04,20,19,31,8.50
2014,04,20,19,32,8.50
2014,04,20,19,33,8.50
2014,04,20,19,35,8.50
2014,04,20,19,37,8.50
2014,04,20,19,38,8.50
2014,04,20,19,39,8.50
2014,04,20,19,40,8.50
2014,04,20,19,41,8.50
2014,04,20,19,42,8.50
2014,04,20,19,44,8.50
2014,04,20,19,46,8.50
2014,04,20,19,47,8.50
2014,04,20,19,48,8.40
2014,04,20,19,49,8.40
2014,04,20,19,51,8.40
2014,04,20,19,52,8.40
2014,04,20,19,53,8.40
2014,04,20,19,54,8.40
2014,04,20,19,55,8.40
2014,04,20,19,56,8.40
2014,04,20,19,57,8.40
2014,04,20,19,58,8.40
2014,04,20,19,59,8.30
2014,04,20,20,00,8.30
2014,04,20,20,01,8.30
2014,04,20,20,02,8.30
2014,04,20,20,04,8.30
2014,04,20,20,05,8.30
2014,04,20,20,06,8.30
2014,04,20,20,07,8.30
2014,04,20,20,08,8.30
2014,04,20,20,09,8.30
2014,04,20,20,10,8.30
2014,04,20,20,12,8.30
2014,04,20,20,13,8.30
2014,04,20,20,14,8.30
2014,04,20,20,16,8.30
2014,04,20,20,18,8.20
2014,04,20,20,20,8.20
2014,04,20,20,21,8.20
2014,04,20,20,23,8.20
2014,04,20,20,24,8.20
2014,04,20,20,25,8.20
2014,04,20,20,26,8.20
2014,04,20,20,27,8.20
2014,04,20,20,28,8.20
2014,04,20,20,29,8.20
2014,04,20,20,31,8.20
2014,04,20,20,32,8.20
2014,04,20,20,33,8.20
2014,04,20,20,34,8.20
2014,04,20,20,35,8.20
2014,04,20,20,36,8.20
2014,04,20,20,37,8.20
2014,04,20,20,39,8.10
2014,04,20,20,40,8.10
2014,04,20,20,41,8.10
2014,04,20,20,43,8.10
2014,04,20,20,44,8.00
2014,04,20,20,45,8.10
2014,04,20,20,46,8.10
2014,04,20,20,47,8.00
2014,04,20,20,49,8.00
2014,04,20,20,50,8.10
2014,04,20,20,52,8.00
2014,04,20,20,53,8.00
2014,04,20,20,55,8.00
2014,04,20,20,57,8.00
2014,04,20,20,58,8.00
2014,04,20,21,00,8.00
2014,04,20,21,01,8.00
2014,04,20,21,02,8.00
2014,04,20,21,03,8.00
2014,04,20,21,05,8.00
2014,04,20,21,06,8.00
2014,04,20,21,07,8.00
2014,04,20,21,08,8.00
2014,04,20,21,10,8.00
2014,04,20,21,11,8.00
2014,04,20,21,12,8.00
2014,04,20,21,13,8.00
2014,04,20,21,14,8.00
2014,04,20,21,15,8.00
2014,04,20,21,16,8.10
2014,04,20,21,17,8.00
2014,04,20,21,18,8.00
2014,04,20,21,19,8.00
2014,04,20,21,20,8.00
2014,04,20,21,21,8.00
2014,04,20,21,22,8.00
2014,04,20,21,23,8.00
2014,04,20,21,24,8.00
2014,04,20,21,25,8.00
2014,04,20,21,26,8.00
2014,04,20,21,27,8.00
2014,04,20,21,28,8.00
2014,04,20,21,29,8.00
2014,04,20,21,30,8.00
2014,04,20,21,31,8.00
2014,04,20,21,32,8.00
2014,04,20,21,33,8.00
2014,04,20,21,34,8.00
2014,04,20,21,35,7.90
2014,04,20,21,36,8.00
2014,04,20,21,37,8.00